Retour au catalogue

NOAA 16 DEB

ActifPO
NORAD 41349·DEBRIS·🇺🇸 United States

Lancé Sep 21, 2000 depuis Vandenberg Space Force Base

Loading…

Prochains Passages (prochaines 24 heures)

TLE

FraisSource: Space-Track

Époque: Sep 14, 2026, 13:41 UTC

1 41349U 00055HS  26257.57074987  .00004115  00000-0  97204-3 0  9996
2 41349  98.9615 115.3686 0026451 186.9408 173.1425 14.54558657556442

Suivez NOAA 16 DEB en temps réel avec AllMySat

Download on the App Store